{"data":{"norad_id":57052,"epoch":"2026-05-25T01:07:05.109888Z","epoch_age_seconds":61185,"freshness":"FRESH","line1":"1 57052U 23088E   26145.04658692  .00000574  00000+0  30391-4 0  9993","line2":"2 57052  43.0060  39.1500 0001509 256.4175 103.6508 15.27575812162013","mean_motion":15.27575812,"eccentricity":0.0001509,"inclination_deg":43.006,"raan_deg":39.15,"arg_perigee_deg":256.4175,"mean_anomaly_deg":103.6508,"bstar":3.0391e-5,"rev_number":16201,"period_min":94.267007155256,"perigee_km":482.02628157269,"apogee_km":484.09699132117,"semimajor_km":6861.1986364469,"source":"CELESTRAK","updated_at":"2026-05-25T13:38:18.208488Z"}}